Time,TemperatureF,DewpointF,PressureIn,WindDirection,WindDirectionDegrees,WindSpeedMPH,WindSpeedGustMPH,Humidity,HourlyPrecipIn,Conditions,Clouds,dailyrainin,SoftwareType,DateUTC
2013-02-09 00:00:00,61.3,59.0,30.00,NW,313,0.0,0.0,92,0.00,,,0.00,Wunderground PWS Mod,2013-02-09 05:00:00,
2013-02-09 00:02:00,61.2,58.9,30.00,NW,313,0.0,0.0,92,0.00,,,0.00,Wunderground PWS Mod,2013-02-09 05:02:00,
2013-02-09 00:04:00,61.2,58.9,30.00,NW,313,0.0,0.0,92,0.00,,,0.00,Wunderground PWS Mod,2013-02-09 05:04:00,
2013-02-09 00:06:00,61.2,58.9,30.00,NW,313,0.0,0.0,92,0.00,,,0.00,Wunderground PWS Mod,2013-02-09 05:06:00,
2013-02-09 00:08:00,60.6,58.6,30.00,N/A,-737280,0.0,0.0,93,0.00,,,0.00,Wunderground PWS Mod,2013-02-09 05:08:00,
2013-02-09 00:12:00,60.9,58.6,30.00,NW,313,0.0,0.0,92,0.00,,,0.00,Wunderground PWS Mod,2013-02-09 05:12:00,
2013-02-09 00:18:00,60.7,58.4,30.00,NW,313,0.0,0.0,92,0.00,,,0.00,Wunderground PWS Mod,2013-02-09 05:18:00,
2013-02-09 00:24:00,60.5,58.2,30.00,NW,313,0.0,0.0,92,0.00,,,0.00,Wunderground PWS Mod,2013-02-09 05:24:00,
2013-02-09 00:30:00,60.7,58.7,30.00,NW,313,0.0,0.0,93,0.00,,,0.00,Wunderground PWS Mod,2013-02-09 05:30:00,
2013-02-09 00:36:00,60.7,58.4,30.00,NW,313,0.0,0.0,92,0.00,,,0.00,Wunderground PWS Mod,2013-02-09 05:36:00,
2013-02-09 00:42:00,60.5,58.5,30.00,NW,313,0.0,0.0,93,0.00,,,0.00,Wunderground PWS Mod,2013-02-09 05:42:00,
2013-02-09 00:48:00,60.4,58.4,30.00,NW,313,0.0,0.0,93,0.00,,,0.00,Wunderground PWS Mod,2013-02-09 05:48:00,
2013-02-09 00:54:00,60.4,58.4,30.00,NW,313,0.0,0.0,93,0.00,,,0.00,Wunderground PWS Mod,2013-02-09 05:54:00,
2013-02-09 01:00:00,60.4,58.4,30.00,NW,313,0.0,0.0,93,0.00,,,0.00,Wunderground PWS Mod,2013-02-09 06:00:00,
2013-02-09 01:06:00,60.4,58.4,30.01,NW,313,0.0,0.0,93,0.00,,,0.00,Wunderground PWS Mod,2013-02-09 06:06:00,
2013-02-09 01:12:00,60.4,58.4,30.01,NW,313,0.0,0.0,93,0.00,,,0.00,Wunderground PWS Mod,2013-02-09 06:12:00,
2013-02-09 01:18:00,60.2,58.2,30.01,NW,313,0.0,0.0,93,0.00,,,0.00,Wunderground PWS Mod,2013-02-09 06:18:00,
2013-02-09 01:24:00,60.2,58.2,30.01,NW,313,0.0,0.0,93,0.00,,,0.00,Wunderground PWS Mod,2013-02-09 06:24:00,
2013-02-09 01:28:00,59.5,57.5,30.02,N/A,-737280,0.0,0.0,93,0.00,,,0.00,Wunderground PWS Mod,2013-02-09 06:28:00,
2013-02-09 01:30:00,59.9,57.9,30.01,NW,315,0.0,0.0,93,0.00,,,0.00,Wunderground PWS Mod,2013-02-09 06:30:00,
2013-02-09 01:36:00,59.8,57.8,30.02,NW,315,0.0,0.0,93,0.00,,,0.00,Wunderground PWS Mod,2013-02-09 06:36:00,
2013-02-09 01:42:00,59.5,57.5,30.02,NW,315,0.0,0.0,93,0.00,,,0.00,Wunderground PWS Mod,2013-02-09 06:42:00,
2013-02-09 01:48:00,59.3,57.3,30.01,NW,315,0.0,0.0,93,0.00,,,0.00,Wunderground PWS Mod,2013-02-09 06:48:00,
2013-02-09 01:54:00,59.2,57.2,30.01,NW,315,0.0,0.0,93,0.00,,,0.00,Wunderground PWS Mod,2013-02-09 06:54:00,
2013-02-09 01:58:00,58.6,56.6,30.00,N/A,-737280,0.0,0.0,93,0.00,,,0.00,Wunderground PWS Mod,2013-02-09 06:58:00,
2013-02-09 02:00:00,59.0,57.0,30.01,NW,315,0.0,1.0,93,0.00,,,0.00,Wunderground PWS Mod,2013-02-09 07:00:00,
2013-02-09 02:06:00,58.9,56.9,30.00,NW,315,0.0,0.0,93,0.00,,,0.00,Wunderground PWS Mod,2013-02-09 07:06:00,
2013-02-09 02:12:00,58.9,56.9,30.00,NW,315,0.0,0.0,93,0.00,,,0.00,Wunderground PWS Mod,2013-02-09 07:12:00,
2013-02-09 02:18:00,58.6,56.6,30.00,NW,315,0.0,0.0,93,0.00,,,0.00,Wunderground PWS Mod,2013-02-09 07:18:00,
2013-02-09 02:24:00,58.4,56.4,30.00,NW,315,0.0,0.0,93,0.00,,,0.00,Wunderground PWS Mod,2013-02-09 07:24:00,
2013-02-09 02:30:00,58.3,56.3,30.00,NW,315,0.0,0.0,93,0.00,,,0.00,Wunderground PWS Mod,2013-02-09 07:30:00,
2013-02-09 02:36:00,58.1,56.1,30.00,NW,315,0.0,0.0,93,0.00,,,0.00,Wunderground PWS Mod,2013-02-09 07:36:00,
2013-02-09 02:42:00,58.0,56.0,30.00,NW,315,0.0,0.0,93,0.00,,,0.00,Wunderground PWS Mod,2013-02-09 07:42:00,
2013-02-09 02:48:00,58.0,56.0,30.00,NNE,23,0.0,0.0,93,0.00,,,0.00,Wunderground PWS Mod,2013-02-09 07:48:00,
2013-02-09 02:54:00,58.0,56.0,30.00,NNE,23,0.0,0.0,93,0.00,,,0.00,Wunderground PWS Mod,2013-02-09 07:54:00,
2013-02-09 03:00:00,57.8,55.8,30.00,NNE,23,0.0,0.0,93,0.00,,,0.00,Wunderground PWS Mod,2013-02-09 08:00:00,
2013-02-09 03:06:00,57.6,55.6,30.00,NNE,23,0.0,0.0,93,0.00,,,0.00,Wunderground PWS Mod,2013-02-09 08:06:00,
2013-02-09 03:12:00,57.5,55.5,30.00,NNE,23,0.0,0.0,93,0.00,,,0.00,Wunderground PWS Mod,2013-02-09 08:12:00,
2013-02-09 03:18:00,57.3,55.3,30.00,NNE,23,0.0,0.0,93,0.00,,,0.00,Wunderground PWS Mod,2013-02-09 08:18:00,
2013-02-09 03:24:00,57.3,55.3,30.00,NNE,23,0.0,0.0,93,0.00,,,0.00,Wunderground PWS Mod,2013-02-09 08:24:00,
2013-02-09 03:30:00,57.2,55.2,30.00,NNE,23,0.0,0.0,93,0.00,,,0.00,Wunderground PWS Mod,2013-02-09 08:30:00,
2013-02-09 03:36:00,57.0,55.0,30.00,NNE,23,0.0,0.0,93,0.00,,,0.00,Wunderground PWS Mod,2013-02-09 08:36:00,
2013-02-09 03:42:00,56.9,54.9,30.00,NNE,23,0.0,0.0,93,0.00,,,0.00,Wunderground PWS Mod,2013-02-09 08:42:00,
2013-02-09 03:44:00,56.5,54.8,30.00,N/A,-737280,0.0,0.0,94,0.00,,,0.00,Wunderground PWS Mod,2013-02-09 08:44:00,
2013-02-09 03:48:00,56.7,54.7,30.00,NNE,23,0.0,0.0,93,0.00,,,0.00,Wunderground PWS Mod,2013-02-09 08:48:00,
2013-02-09 03:54:00,56.6,54.6,30.00,NNE,23,0.0,0.0,93,0.00,,,0.00,Wunderground PWS Mod,2013-02-09 08:54:00,
2013-02-09 04:00:00,56.5,54.5,30.00,NNE,23,0.0,0.0,93,0.00,,,0.00,Wunderground PWS Mod,2013-02-09 09:00:00,
2013-02-09 04:06:00,56.2,54.5,29.99,N/A,-737280,0.0,0.0,94,0.00,,,0.00,Wunderground PWS Mod,2013-02-09 09:06:00,
2013-02-09 04:08:00,56.3,54.3,29.99,NNE,23,0.0,0.0,93,0.00,,,0.00,Wunderground PWS Mod,2013-02-09 09:08:00,
2013-02-09 04:14:00,56.2,54.5,29.99,NNE,23,0.0,0.0,94,0.00,,,0.00,Wunderground PWS Mod,2013-02-09 09:14:00,
2013-02-09 04:20:00,56.2,54.5,29.99,NNE,23,0.0,0.0,94,0.00,,,0.00,Wunderground PWS Mod,2013-02-09 09:20:00,
2013-02-09 04:26:00,56.2,54.5,29.99,NNE,23,0.0,0.0,94,0.00,,,0.00,Wunderground PWS Mod,2013-02-09 09:26:00,
2013-02-09 04:32:00,56.0,54.3,29.99,NNE,23,0.0,0.0,94,0.00,,,0.00,Wunderground PWS Mod,2013-02-09 09:32:00,
2013-02-09 04:38:00,55.9,54.2,30.00,NNE,23,0.0,0.0,94,0.00,,,0.00,Wunderground PWS Mod,2013-02-09 09:38:00,
2013-02-09 04:44:00,55.7,54.0,30.00,NNE,23,0.0,0.0,94,0.00,,,0.00,Wunderground PWS Mod,2013-02-09 09:44:00,
2013-02-09 04:50:00,55.7,54.0,30.00,NNE,23,0.0,0.0,94,0.00,,,0.00,Wunderground PWS Mod,2013-02-09 09:50:00,
2013-02-09 04:56:00,55.6,53.9,30.00,NNE,23,0.0,0.0,94,0.00,,,0.00,Wunderground PWS Mod,2013-02-09 09:56:00,
2013-02-09 05:02:00,55.6,53.9,30.00,NNE,23,0.0,0.0,94,0.00,,,0.00,Wunderground PWS Mod,2013-02-09 10:02:00,
2013-02-09 05:08:00,55.4,53.7,30.00,NNE,23,0.0,0.0,94,0.00,,,0.00,Wunderground PWS Mod,2013-02-09 10:08:00,
2013-02-09 05:14:00,55.4,53.7,30.00,NNE,23,0.0,0.0,94,0.00,,,0.00,Wunderground PWS Mod,2013-02-09 10:14:00,
2013-02-09 05:20:00,55.3,53.6,30.01,NNE,23,0.0,0.0,94,0.00,,,0.00,Wunderground PWS Mod,2013-02-09 10:20:00,
2013-02-09 05:26:00,55.3,53.6,30.01,NNE,23,0.0,0.0,94,0.00,,,0.00,Wunderground PWS Mod,2013-02-09 10:26:00,
2013-02-09 05:32:00,55.3,53.6,30.01,NNE,23,0.0,0.0,94,0.00,,,0.00,Wunderground PWS Mod,2013-02-09 10:32:00,
2013-02-09 05:38:00,55.3,53.6,30.01,NNE,23,0.0,0.0,94,0.00,,,0.00,Wunderground PWS Mod,2013-02-09 10:38:00,
2013-02-09 05:44:00,55.3,53.6,30.01,NNE,23,0.0,0.0,94,0.00,,,0.00,Wunderground PWS Mod,2013-02-09 10:44:00,
2013-02-09 05:50:00,55.1,53.4,30.02,NNE,23,0.0,0.0,94,0.00,,,0.00,Wunderground PWS Mod,2013-02-09 10:50:00,
2013-02-09 05:52:00,55.1,53.7,30.02,N/A,-737280,0.0,0.0,95,0.00,,,0.00,Wunderground PWS Mod,2013-02-09 10:52:00,
2013-02-09 05:56:00,55.0,53.3,30.02,NNE,23,0.0,0.0,94,0.00,,,0.00,Wunderground PWS Mod,2013-02-09 10:56:00,
2013-02-09 06:02:00,55.0,53.3,30.02,NNE,23,0.0,0.0,94,0.00,,,0.00,Wunderground PWS Mod,2013-02-09 11:02:00,
2013-02-09 06:08:00,55.0,53.6,30.02,NNE,23,0.0,0.0,95,0.00,,,0.00,Wunderground PWS Mod,2013-02-09 11:08:00,
2013-02-09 06:14:00,55.1,53.7,30.02,NNE,23,0.0,0.0,95,0.00,,,0.00,Wunderground PWS Mod,2013-02-09 11:14:00,
2013-02-09 06:20:00,55.1,53.7,30.03,NNE,23,0.0,0.0,95,0.00,,,0.00,Wunderground PWS Mod,2013-02-09 11:20:00,
2013-02-09 06:22:00,55.0,53.6,30.03,N/A,-737280,0.0,0.0,95,0.00,,,0.00,Wunderground PWS Mod,2013-02-09 11:22:00,
2013-02-09 06:26:00,55.1,53.4,30.03,NNE,23,0.0,0.0,94,0.00,,,0.00,Wunderground PWS Mod,2013-02-09 11:26:00,
2013-02-09 06:32:00,55.0,53.3,30.03,NNE,23,0.0,0.0,94,0.00,,,0.00,Wunderground PWS Mod,2013-02-09 11:32:00,
2013-02-09 06:38:00,55.0,53.6,30.03,NNE,23,0.0,0.0,95,0.00,,,0.00,Wunderground PWS Mod,2013-02-09 11:38:00,
2013-02-09 06:44:00,55.3,53.9,30.03,NNE,23,0.0,0.0,95,0.00,,,0.00,Wunderground PWS Mod,2013-02-09 11:44:00,
2013-02-09 06:50:00,55.6,54.2,30.04,NNE,23,0.0,0.0,95,0.00,,,0.00,Wunderground PWS Mod,2013-02-09 11:50:00,
2013-02-09 06:56:00,56.0,54.6,30.04,NNE,23,0.0,0.0,95,0.00,,,0.00,Wunderground PWS Mod,2013-02-09 11:56:00,
2013-02-09 07:02:00,56.2,54.8,30.04,NNE,23,0.0,0.0,95,0.00,,,0.00,Wunderground PWS Mod,2013-02-09 12:02:00,
2013-02-09 07:08:00,56.3,54.9,30.04,NNE,23,0.0,0.0,95,0.00,,,0.00,Wunderground PWS Mod,2013-02-09 12:08:00,
2013-02-09 07:14:00,56.5,55.1,30.04,NNE,23,0.0,0.0,95,0.00,,,0.00,Wunderground PWS Mod,2013-02-09 12:14:00,
2013-02-09 07:18:00,57.2,55.8,30.05,N/A,-737280,0.0,0.0,95,0.00,,,0.00,Wunderground PWS Mod,2013-02-09 12:18:00,
2013-02-09 07:20:00,56.7,55.3,30.05,NNE,23,0.0,0.0,95,0.00,,,0.00,Wunderground PWS Mod,2013-02-09 12:20:00,
2013-02-09 07:26:00,56.9,55.5,30.05,NNE,23,0.0,2.0,95,0.00,,,0.00,Wunderground PWS Mod,2013-02-09 12:26:00,
2013-02-09 07:32:00,57.0,55.6,30.05,NNE,23,0.0,0.0,95,0.00,,,0.00,Wunderground PWS Mod,2013-02-09 12:32:00,
2013-02-09 07:38:00,57.2,55.8,30.05,NNE,23,0.0,1.0,95,0.00,,,0.00,Wunderground PWS Mod,2013-02-09 12:38:00,
2013-02-09 07:44:00,57.5,56.1,30.05,NNE,23,0.0,1.0,95,0.00,,,0.00,Wunderground PWS Mod,2013-02-09 12:44:00,
2013-02-09 07:50:00,57.8,56.4,30.06,NNE,23,0.0,0.0,95,0.00,,,0.00,Wunderground PWS Mod,2013-02-09 12:50:00,
2013-02-09 07:56:00,58.0,56.6,30.06,WSW,254,0.0,2.0,95,0.00,,,0.00,Wunderground PWS Mod,2013-02-09 12:56:00,
2013-02-09 08:02:00,58.4,57.3,30.06,NNW,342,0.0,3.0,96,0.00,,,0.00,Wunderground PWS Mod,2013-02-09 13:02:00,
2013-02-09 08:08:00,58.7,57.6,30.06,North,5,0.0,3.0,96,0.00,,,0.00,Wunderground PWS Mod,2013-02-09 13:08:00,
2013-02-09 08:14:00,59.0,57.9,30.06,North,5,0.0,1.0,96,0.00,,,0.00,Wunderground PWS Mod,2013-02-09 13:14:00,
2013-02-09 08:20:00,59.2,57.8,30.07,NNE,22,0.0,0.0,95,0.00,,,0.00,Wunderground PWS Mod,2013-02-09 13:20:00,
2013-02-09 08:26:00,59.3,57.9,30.07,North,9,1.0,3.0,95,0.00,,,0.00,Wunderground PWS Mod,2013-02-09 13:26:00,
2013-02-09 08:32:00,59.3,57.9,30.07,NNW,342,1.0,1.0,95,0.00,,,0.00,Wunderground PWS Mod,2013-02-09 13:32:00,
2013-02-09 08:38:00,59.5,58.1,30.08,North,11,0.0,2.0,95,0.00,,,0.00,Wunderground PWS Mod,2013-02-09 13:38:00,
2013-02-09 08:44:00,59.6,58.2,30.08,NNE,20,1.0,3.0,95,0.00,,,0.00,Wunderground PWS Mod,2013-02-09 13:44:00,
2013-02-09 08:50:00,59.9,58.5,30.08,NNE,16,1.0,2.0,95,0.00,,,0.00,Wunderground PWS Mod,2013-02-09 13:50:00,
2013-02-09 08:56:00,60.4,59.0,30.08,NNE,26,1.0,2.0,95,0.00,,,0.00,Wunderground PWS Mod,2013-02-09 13:56:00,
2013-02-09 09:00:00,61.8,59.8,30.09,NNE,23,1.0,2.0,93,0.00,,,0.00,Wunderground PWS Mod,2013-02-09 14:00:00,
2013-02-09 09:02:00,60.7,59.3,30.08,North,355,1.0,4.0,95,0.00,,,0.00,Wunderground PWS Mod,2013-02-09 14:02:00,
2013-02-09 09:08:00,61.0,59.3,30.08,North,9,1.0,2.0,94,0.00,,,0.00,Wunderground PWS Mod,2013-02-09 14:08:00,
2013-02-09 09:14:00,61.5,59.5,30.08,ESE,119,1.0,1.0,93,0.00,,,0.00,Wunderground PWS Mod,2013-02-09 14:14:00,
2013-02-09 09:20:00,62.0,60.0,30.09,NNW,348,1.0,2.0,93,0.00,,,0.00,Wunderground PWS Mod,2013-02-09 14:20:00,
2013-02-09 09:26:00,62.7,60.0,30.09,NW,319,1.0,2.0,91,0.00,,,0.00,Wunderground PWS Mod,2013-02-09 14:26:00,
2013-02-09 09:32:00,63.5,60.2,30.09,NW,324,0.0,1.0,89,0.00,,,0.00,Wunderground PWS Mod,2013-02-09 14:32:00,
2013-02-09 09:38:00,64.7,60.7,30.09,ENE,73,0.0,0.0,87,0.00,,,0.00,Wunderground PWS Mod,2013-02-09 14:38:00,
2013-02-09 09:44:00,65.3,60.3,30.09,East,80,0.0,0.0,84,0.00,,,0.00,Wunderground PWS Mod,2013-02-09 14:44:00,
2013-02-09 09:50:00,65.5,59.9,30.09,NNE,17,0.0,1.0,82,0.00,,,0.00,Wunderground PWS Mod,2013-02-09 14:50:00,
2013-02-09 09:54:00,66.7,59.6,30.09,North,0,2.0,3.0,78,0.00,,,0.00,Wunderground PWS Mod,2013-02-09 14:54:00,
2013-02-09 09:56:00,65.8,59.8,30.09,North,5,1.0,4.0,81,0.00,,,0.00,Wunderground PWS Mod,2013-02-09 14:56:00,
2013-02-09 10:02:00,66.0,59.7,30.09,North,351,1.0,4.0,80,0.00,,,0.00,Wunderground PWS Mod,2013-02-09 15:02:00,
2013-02-09 10:08:00,66.4,59.7,30.09,North,9,0.0,3.0,79,0.00,,,0.00,Wunderground PWS Mod,2013-02-09 15:08:00,
2013-02-09 10:14:00,66.8,59.7,30.09,NNW,348,1.0,3.0,78,0.00,,,0.00,Wunderground PWS Mod,2013-02-09 15:14:00,
2013-02-09 10:20:00,66.9,59.5,30.09,NNW,338,2.0,4.0,77,0.00,,,0.00,Wunderground PWS Mod,2013-02-09 15:20:00,
2013-02-09 10:26:00,67.4,59.9,30.09,NNE,16,2.0,2.0,77,0.00,,,0.00,Wunderground PWS Mod,2013-02-09 15:26:00,
2013-02-09 10:28:00,69.6,60.6,30.10,East,90,3.0,7.0,73,0.00,,,0.00,Wunderground PWS Mod,2013-02-09 15:28:00,
2013-02-09 10:32:00,68.3,60.1,30.09,NNW,335,1.0,6.0,75,0.00,,,0.00,Wunderground PWS Mod,2013-02-09 15:32:00,
2013-02-09 10:38:00,68.8,60.2,30.10,NNW,339,2.0,2.0,74,0.00,,,0.00,Wunderground PWS Mod,2013-02-09 15:38:00,
2013-02-09 10:44:00,69.3,60.3,30.10,NNE,15,2.0,4.0,73,0.00,,,0.00,Wunderground PWS Mod,2013-02-09 15:44:00,
2013-02-09 10:50:00,69.9,60.8,30.09,NNW,333,2.0,7.0,73,0.00,,,0.00,Wunderground PWS Mod,2013-02-09 15:50:00,
2013-02-09 10:56:00,70.4,60.5,30.09,North,350,1.0,4.0,71,0.00,,,0.00,Wunderground PWS Mod,2013-02-09 15:56:00,
2013-02-09 11:02:00,71.1,61.2,30.09,North,5,1.0,4.0,71,0.00,,,0.00,Wunderground PWS Mod,2013-02-09 16:02:00,
2013-02-09 11:06:00,73.3,61.7,30.09,North,0,2.0,3.0,67,0.00,,,0.00,Wunderground PWS Mod,2013-02-09 16:06:00,
2013-02-09 11:08:00,71.8,61.5,30.10,NNE,27,1.0,2.0,70,0.00,,,0.00,Wunderground PWS Mod,2013-02-09 16:08:00,
2013-02-09 11:14:00,72.5,61.7,30.10,NW,310,1.0,3.0,69,0.00,,,0.00,Wunderground PWS Mod,2013-02-09 16:14:00,
2013-02-09 11:20:00,73.0,62.2,30.09,NNW,341,1.0,3.0,69,0.00,,,0.00,Wunderground PWS Mod,2013-02-09 16:20:00,
2013-02-09 11:26:00,73.5,62.3,30.09,North,5,1.0,2.0,68,0.00,,,0.00,Wunderground PWS Mod,2013-02-09 16:26:00,
2013-02-09 11:32:00,73.7,61.6,30.09,ESE,113,1.0,5.0,66,0.00,,,0.00,Wunderground PWS Mod,2013-02-09 16:32:00,
2013-02-09 11:38:00,73.9,62.2,30.09,NNW,332,1.0,4.0,67,0.00,,,0.00,Wunderground PWS Mod,2013-02-09 16:38:00,
2013-02-09 11:44:00,74.2,62.5,30.09,NNW,336,1.0,2.0,67,0.00,,,0.00,Wunderground PWS Mod,2013-02-09 16:44:00,
2013-02-09 11:50:00,74.9,63.2,30.09,North,355,1.0,3.0,67,0.00,,,0.00,Wunderground PWS Mod,2013-02-09 16:50:00,
2013-02-09 11:56:00,75.4,62.8,30.09,ESE,109,1.0,2.0,65,0.00,,,0.00,Wunderground PWS Mod,2013-02-09 16:56:00,
2013-02-09 12:02:00,76.0,62.9,30.09,NE,54,1.0,4.0,64,0.00,,,0.00,Wunderground PWS Mod,2013-02-09 17:02:00,
2013-02-09 12:04:00,76.3,62.8,30.08,NNE,23,2.0,6.0,63,0.00,,,0.00,Wunderground PWS Mod,2013-02-09 17:04:00,
2013-02-09 12:08:00,75.8,62.3,30.09,ENE,78,2.0,2.0,63,0.00,,,0.00,Wunderground PWS Mod,2013-02-09 17:08:00,
2013-02-09 12:14:00,76.0,62.5,30.09,NNE,24,1.0,1.0,63,0.00,,,0.00,Wunderground PWS Mod,2013-02-09 17:14:00,
2013-02-09 12:20:00,76.3,63.2,30.08,ESE,121,1.0,4.0,64,0.00,,,0.00,Wunderground PWS Mod,2013-02-09 17:20:00,
2013-02-09 12:26:00,76.5,63.0,30.08,NW,311,1.0,6.0,63,0.00,,,0.00,Wunderground PWS Mod,2013-02-09 17:26:00,
2013-02-09 12:32:00,76.5,63.0,30.08,NE,38,1.0,6.0,63,0.00,,,0.00,Wunderground PWS Mod,2013-02-09 17:32:00,
2013-02-09 12:38:00,76.7,63.2,30.08,North,351,2.0,4.0,63,0.00,,,0.00,Wunderground PWS Mod,2013-02-09 17:38:00,
2013-02-09 12:44:00,76.5,62.5,30.08,North,355,2.0,4.0,62,0.00,,,0.00,Wunderground PWS Mod,2013-02-09 17:44:00,
2013-02-09 12:50:00,76.5,63.4,30.07,East,100,1.0,2.0,64,0.00,,,0.00,Wunderground PWS Mod,2013-02-09 17:50:00,
2013-02-09 12:56:00,76.8,62.8,30.07,SSW,193,2.0,5.0,62,0.00,,,0.00,Wunderground PWS Mod,2013-02-09 17:56:00,
2013-02-09 13:02:00,76.8,62.8,30.07,NNE,17,1.0,3.0,62,0.00,,,0.00,Wunderground PWS Mod,2013-02-09 18:02:00,
2013-02-09 13:08:00,77.2,62.7,30.06,NW,313,1.0,3.0,61,0.00,,,0.00,Wunderground PWS Mod,2013-02-09 18:08:00,
2013-02-09 13:14:00,77.2,62.7,30.06,East,80,1.0,1.0,61,0.00,,,0.00,Wunderground PWS Mod,2013-02-09 18:14:00,
2013-02-09 13:20:00,77.6,62.1,30.06,NNW,327,1.0,2.0,59,0.00,,,0.00,Wunderground PWS Mod,2013-02-09 18:20:00,
2013-02-09 13:26:00,77.7,62.2,30.06,NNE,24,1.0,5.0,59,0.00,,,0.00,Wunderground PWS Mod,2013-02-09 18:26:00,
2013-02-09 13:32:00,77.7,62.7,30.06,North,360,2.0,3.0,60,0.00,,,0.00,Wunderground PWS Mod,2013-02-09 18:32:00,
2013-02-09 13:38:00,77.7,62.2,30.06,NNW,335,2.0,3.0,59,0.00,,,0.00,Wunderground PWS Mod,2013-02-09 18:38:00,
2013-02-09 13:44:00,77.7,62.2,30.06,NW,319,2.0,4.0,59,0.00,,,0.00,Wunderground PWS Mod,2013-02-09 18:44:00,
2013-02-09 13:50:00,77.9,62.9,30.05,North,355,2.0,3.0,60,0.00,,,0.00,Wunderground PWS Mod,2013-02-09 18:50:00,
2013-02-09 13:56:00,77.9,62.4,30.05,SE,130,1.0,2.0,59,0.00,,,0.00,Wunderground PWS Mod,2013-02-09 18:56:00,
2013-02-09 14:02:00,78.1,61.6,30.05,NW,304,1.0,3.0,57,0.00,,,0.00,Wunderground PWS Mod,2013-02-09 19:02:00,
2013-02-09 14:08:00,78.5,62.5,30.05,SE,126,1.0,2.0,58,0.00,,,0.00,Wunderground PWS Mod,2013-02-09 19:08:00,
2013-02-09 14:14:00,78.6,63.1,30.05,NNW,342,0.0,2.0,59,0.00,,,0.00,Wunderground PWS Mod,2013-02-09 19:14:00,
2013-02-09 14:20:00,78.6,63.1,30.04,NNW,344,1.0,1.0,59,0.00,,,0.00,Wunderground PWS Mod,2013-02-09 19:20:00,
2013-02-09 14:26:00,79.0,62.5,30.04,NNE,21,1.0,2.0,57,0.00,,,0.00,Wunderground PWS Mod,2013-02-09 19:26:00,
2013-02-09 14:32:00,79.2,62.1,30.04,North,360,1.0,2.0,56,0.00,,,0.00,Wunderground PWS Mod,2013-02-09 19:32:00,
2013-02-09 14:38:00,79.4,62.3,30.03,ENE,70,1.0,1.0,56,0.00,,,0.00,Wunderground PWS Mod,2013-02-09 19:38:00,
2013-02-09 14:44:00,79.4,61.8,30.03,North,5,1.0,3.0,55,0.00,,,0.00,Wunderground PWS Mod,2013-02-09 19:44:00,
2013-02-09 14:50:00,79.8,61.7,30.03,South,183,1.0,1.0,54,0.00,,,0.00,Wunderground PWS Mod,2013-02-09 19:50:00,
2013-02-09 14:56:00,79.6,61.5,30.03,NE,38,0.0,5.0,54,0.00,,,0.00,Wunderground PWS Mod,2013-02-09 19:56:00,
2013-02-09 15:00:00,80.5,60.7,30.03,N/A,-737280,0.0,0.0,51,0.00,,,0.00,Wunderground PWS Mod,2013-02-09 20:00:00,
2013-02-09 15:02:00,79.9,61.8,30.03,NNE,24,0.0,1.0,54,0.00,,,0.00,Wunderground PWS Mod,2013-02-09 20:02:00,
2013-02-09 15:08:00,80.5,61.8,30.03,SE,128,0.0,1.0,53,0.00,,,0.00,Wunderground PWS Mod,2013-02-09 20:08:00,
2013-02-09 15:14:00,80.5,61.3,30.03,NNE,12,0.0,1.0,52,0.00,,,0.00,Wunderground PWS Mod,2013-02-09 20:14:00,
2013-02-09 15:20:00,80.5,61.3,30.03,NNW,329,0.0,0.0,52,0.00,,,0.00,Wunderground PWS Mod,2013-02-09 20:20:00,
2013-02-09 15:26:00,80.7,62.0,30.03,NE,44,0.0,0.0,53,0.00,,,0.00,Wunderground PWS Mod,2013-02-09 20:26:00,
2013-02-09 15:32:00,80.9,61.6,30.03,NNE,15,1.0,9.0,52,0.00,,,0.00,Wunderground PWS Mod,2013-02-09 20:32:00,
2013-02-09 15:38:00,80.7,60.9,30.03,NNW,346,1.0,1.0,51,0.00,,,0.00,Wunderground PWS Mod,2013-02-09 20:38:00,
2013-02-09 15:40:00,78.8,60.7,30.03,West,270,1.0,3.0,54,0.00,,,0.00,Wunderground PWS Mod,2013-02-09 20:40:00,
2013-02-09 15:44:00,80.1,60.3,30.03,ESE,116,0.0,1.0,51,0.00,,,0.00,Wunderground PWS Mod,2013-02-09 20:44:00,
2013-02-09 15:50:00,79.4,60.8,30.03,West,259,0.0,1.0,53,0.00,,,0.00,Wunderground PWS Mod,2013-02-09 20:50:00,
2013-02-09 15:56:00,78.8,60.7,30.03,West,259,0.0,0.0,54,0.00,,,0.00,Wunderground PWS Mod,2013-02-09 20:56:00,
2013-02-09 16:02:00,78.8,60.7,30.03,NNE,24,1.0,3.0,54,0.00,,,0.00,Wunderground PWS Mod,2013-02-09 21:02:00,
2013-02-09 16:06:00,79.4,60.2,30.03,NNE,23,0.0,1.0,52,0.00,,,0.00,Wunderground PWS Mod,2013-02-09 21:06:00,
2013-02-09 16:08:00,79.2,60.1,30.03,East,86,1.0,1.0,52,0.00,,,0.00,Wunderground PWS Mod,2013-02-09 21:08:00,
2013-02-09 16:14:00,79.4,60.8,30.03,NNE,12,0.0,1.0,53,0.00,,,0.00,Wunderground PWS Mod,2013-02-09 21:14:00,
2013-02-09 16:20:00,79.4,60.2,30.03,SW,218,0.0,0.0,52,0.00,,,0.00,Wunderground PWS Mod,2013-02-09 21:20:00,
2013-02-09 16:26:00,79.4,60.2,30.03,NNE,28,0.0,1.0,52,0.00,,,0.00,Wunderground PWS Mod,2013-02-09 21:26:00,
2013-02-09 16:32:00,79.4,60.8,30.03,NE,43,0.0,0.0,53,0.00,,,0.00,Wunderground PWS Mod,2013-02-09 21:32:00,
2013-02-09 16:34:00,79.2,61.1,30.03,ESE,113,0.0,2.0,54,0.00,,,0.00,Wunderground PWS Mod,2013-02-09 21:34:00,
2013-02-09 16:38:00,79.6,59.9,30.03,North,5,0.0,0.0,51,0.00,,,0.00,Wunderground PWS Mod,2013-02-09 21:38:00,
2013-02-09 16:44:00,79.4,60.2,30.03,North,10,0.0,1.0,52,0.00,,,0.00,Wunderground PWS Mod,2013-02-09 21:44:00,
2013-02-09 16:50:00,79.4,60.8,30.03,North,10,0.0,0.0,53,0.00,,,0.00,Wunderground PWS Mod,2013-02-09 21:50:00,
2013-02-09 16:56:00,79.2,61.1,30.03,North,5,0.0,1.0,54,0.00,,,0.00,Wunderground PWS Mod,2013-02-09 21:56:00,
2013-02-09 17:02:00,79.0,60.9,30.03,North,5,0.0,0.0,54,0.00,,,0.00,Wunderground PWS Mod,2013-02-09 22:02:00,
2013-02-09 17:08:00,79.0,60.4,30.03,NNW,343,0.0,2.0,53,0.00,,,0.00,Wunderground PWS Mod,2013-02-09 22:08:00,
2013-02-09 17:14:00,78.6,60.6,30.03,NNW,344,0.0,1.0,54,0.00,,,0.00,Wunderground PWS Mod,2013-02-09 22:14:00,
2013-02-09 17:20:00,78.5,61.5,30.03,NNW,344,0.0,0.0,56,0.00,,,0.00,Wunderground PWS Mod,2013-02-09 22:20:00,
2013-02-09 17:26:00,78.1,60.6,30.03,NNW,344,0.0,0.0,55,0.00,,,0.00,Wunderground PWS Mod,2013-02-09 22:26:00,
2013-02-09 17:32:00,77.7,60.8,30.03,NNW,344,0.0,0.0,56,0.00,,,0.00,Wunderground PWS Mod,2013-02-09 22:32:00,
2013-02-09 17:38:00,77.4,60.5,30.03,NNW,344,0.0,0.0,56,0.00,,,0.00,Wunderground PWS Mod,2013-02-09 22:38:00,
2013-02-09 17:44:00,77.0,60.6,30.03,NNW,344,0.0,0.0,57,0.00,,,0.00,Wunderground PWS Mod,2013-02-09 22:44:00,
2013-02-09 17:50:00,76.7,60.8,30.04,NNW,344,0.0,0.0,58,0.00,,,0.00,Wunderground PWS Mod,2013-02-09 22:50:00,
2013-02-09 17:56:00,76.3,60.9,30.04,NNW,344,0.0,0.0,59,0.00,,,0.00,Wunderground PWS Mod,2013-02-09 22:56:00,
2013-02-09 18:02:00,75.8,60.9,30.04,NNW,344,0.0,0.0,60,0.00,,,0.00,Wunderground PWS Mod,2013-02-09 23:02:00,
2013-02-09 18:04:00,74.4,61.0,30.04,N/A,-737280,0.0,0.0,63,0.00,,,0.00,Wunderground PWS Mod,2013-02-09 23:04:00,
2013-02-09 18:08:00,75.4,61.0,30.04,NNW,344,0.0,0.0,61,0.00,,,0.00,Wunderground PWS Mod,2013-02-09 23:08:00,
2013-02-09 18:14:00,75.1,61.2,30.04,NNW,344,0.0,0.0,62,0.00,,,0.00,Wunderground PWS Mod,2013-02-09 23:14:00,
2013-02-09 18:20:00,74.6,61.2,30.04,NNW,344,0.0,0.0,63,0.00,,,0.00,Wunderground PWS Mod,2013-02-09 23:20:00,
2013-02-09 18:26:00,74.2,61.2,30.04,NNW,344,0.0,0.0,64,0.00,,,0.00,Wunderground PWS Mod,2013-02-09 23:26:00,
2013-02-09 18:30:00,72.8,60.3,30.05,N/A,-737280,0.0,0.0,65,0.00,,,0.00,Wunderground PWS Mod,2013-02-09 23:30:00,
2013-02-09 18:32:00,73.9,61.0,30.04,NNW,344,0.0,0.0,64,0.00,,,0.00,Wunderground PWS Mod,2013-02-09 23:32:00,
2013-02-09 18:38:00,73.3,60.8,30.05,North,355,0.0,0.0,65,0.00,,,0.00,Wunderground PWS Mod,2013-02-09 23:38:00,
2013-02-09 18:44:00,73.0,60.5,30.05,ENE,62,0.0,1.0,65,0.00,,,0.00,Wunderground PWS Mod,2013-02-09 23:44:00,
2013-02-09 18:50:00,72.8,60.3,30.05,ENE,61,0.0,0.0,65,0.00,,,0.00,Wunderground PWS Mod,2013-02-09 23:50:00,
2013-02-09 18:56:00,72.5,60.1,30.05,ENE,61,0.0,0.0,65,0.00,,,0.00,Wunderground PWS Mod,2013-02-09 23:56:00,
2013-02-09 19:02:00,72.1,59.7,30.05,NE,51,0.0,1.0,65,0.00,,,0.00,Wunderground PWS Mod,2013-02-10 00:02:00,
2013-02-09 19:08:00,72.0,59.6,30.06,NE,36,0.0,2.0,65,0.00,,,0.00,Wunderground PWS Mod,2013-02-10 00:08:00,
2013-02-09 19:14:00,71.8,59.4,30.06,NW,321,0.0,2.0,65,0.00,,,0.00,Wunderground PWS Mod,2013-02-10 00:14:00,
2013-02-09 19:20:00,71.8,59.4,30.06,NW,321,0.0,1.0,65,0.00,,,0.00,Wunderground PWS Mod,2013-02-10 00:20:00,
2013-02-09 19:26:00,71.6,59.2,30.06,NW,321,0.0,0.0,65,0.00,,,0.00,Wunderground PWS Mod,2013-02-10 00:26:00,
2013-02-09 19:32:00,71.3,58.9,30.06,NW,323,0.0,0.0,65,0.00,,,0.00,Wunderground PWS Mod,2013-02-10 00:32:00,
2013-02-09 19:38:00,71.1,58.7,30.06,NW,323,0.0,1.0,65,0.00,,,0.00,Wunderground PWS Mod,2013-02-10 00:38:00,
2013-02-09 19:44:00,70.9,59.0,30.06,WNW,303,0.0,0.0,66,0.00,,,0.00,Wunderground PWS Mod,2013-02-10 00:44:00,
2013-02-09 19:50:00,70.9,59.0,30.07,NW,305,0.0,0.0,66,0.00,,,0.00,Wunderground PWS Mod,2013-02-10 00:50:00,
2013-02-09 19:54:00,70.4,59.3,30.08,N/A,-737280,0.0,0.0,68,0.00,,,0.00,Wunderground PWS Mod,2013-02-10 00:54:00,
2013-02-09 19:56:00,70.8,58.9,30.07,NW,305,0.0,0.0,66,0.00,,,0.00,Wunderground PWS Mod,2013-02-10 00:56:00,
2013-02-09 20:02:00,70.6,59.1,30.07,NW,305,0.0,0.0,67,0.00,,,0.00,Wunderground PWS Mod,2013-02-10 01:02:00,
2013-02-09 20:08:00,70.4,59.3,30.08,NW,305,0.0,1.0,68,0.00,,,0.00,Wunderground PWS Mod,2013-02-10 01:08:00,
2013-02-09 20:14:00,70.4,59.3,30.08,NW,305,0.0,0.0,68,0.00,,,0.00,Wunderground PWS Mod,2013-02-10 01:14:00,
2013-02-09 20:18:00,70.6,60.3,30.08,N/A,-737280,0.0,0.0,70,0.00,,,0.00,Wunderground PWS Mod,2013-02-10 01:18:00,
2013-02-09 20:20:00,70.6,59.9,30.08,North,5,0.0,2.0,69,0.00,,,0.00,Wunderground PWS Mod,2013-02-10 01:20:00,
2013-02-09 20:26:00,70.6,60.3,30.08,West,281,0.0,2.0,70,0.00,,,0.00,Wunderground PWS Mod,2013-02-10 01:26:00,
2013-02-09 20:32:00,70.6,60.3,30.08,West,281,0.0,0.0,70,0.00,,,0.00,Wunderground PWS Mod,2013-02-10 01:32:00,
2013-02-09 20:38:00,70.6,60.3,30.08,West,281,0.0,0.0,70,0.00,,,0.00,Wunderground PWS Mod,2013-02-10 01:38:00,
2013-02-09 20:44:00,70.3,60.4,30.08,WNW,298,0.0,1.0,71,0.00,,,0.00,Wunderground PWS Mod,2013-02-10 01:44:00,
2013-02-09 20:50:00,70.3,60.8,30.09,ENE,69,0.0,0.0,72,0.00,,,0.00,Wunderground PWS Mod,2013-02-10 01:50:00,
2013-02-09 20:54:00,69.9,61.2,30.09,N/A,-737280,0.0,0.0,74,0.00,,,0.00,Wunderground PWS Mod,2013-02-10 01:54:00,
2013-02-09 20:56:00,70.1,60.7,30.09,ENE,69,0.0,0.0,72,0.00,,,0.00,Wunderground PWS Mod,2013-02-10 01:56:00,
2013-02-09 21:02:00,70.1,61.0,30.09,NE,38,0.0,0.0,73,0.00,,,0.00,Wunderground PWS Mod,2013-02-10 02:02:00,
2013-02-09 21:08:00,69.9,61.2,30.09,NE,46,0.0,0.0,74,0.00,,,0.00,Wunderground PWS Mod,2013-02-10 02:08:00,
2013-02-09 21:14:00,69.9,61.2,30.09,NNE,28,0.0,0.0,74,0.00,,,0.00,Wunderground PWS Mod,2013-02-10 02:14:00,
2013-02-09 21:20:00,69.9,61.6,30.10,East,90,0.0,0.0,75,0.00,,,0.00,Wunderground PWS Mod,2013-02-10 02:20:00,
2013-02-09 21:26:00,69.9,61.6,30.10,ENE,74,0.0,1.0,75,0.00,,,0.00,Wunderground PWS Mod,2013-02-10 02:26:00,
2013-02-09 21:32:00,69.9,61.6,30.10,ENE,74,0.0,0.0,75,0.00,,,0.00,Wunderground PWS Mod,2013-02-10 02:32:00,
2013-02-09 21:38:00,69.9,62.0,30.10,East,84,0.0,0.0,76,0.00,,,0.00,Wunderground PWS Mod,2013-02-10 02:38:00,
2013-02-09 21:44:00,69.8,61.9,30.10,East,84,0.0,0.0,76,0.00,,,0.00,Wunderground PWS Mod,2013-02-10 02:44:00,
2013-02-09 21:50:00,69.6,61.7,30.10,East,84,0.0,0.0,76,0.00,,,0.00,Wunderground PWS Mod,2013-02-10 02:50:00,
2013-02-09 21:52:00,69.3,61.8,30.11,N/A,-737280,0.0,0.0,77,0.00,,,0.00,Wunderground PWS Mod,2013-02-10 02:52:00,
2013-02-09 21:56:00,69.4,61.5,30.10,East,84,0.0,0.0,76,0.00,,,0.00,Wunderground PWS Mod,2013-02-10 02:56:00,
2013-02-09 22:02:00,69.3,61.8,30.10,East,84,0.0,0.0,77,0.00,,,0.00,Wunderground PWS Mod,2013-02-10 03:02:00,
2013-02-09 22:08:00,69.3,61.8,30.11,East,83,0.0,0.0,77,0.00,,,0.00,Wunderground PWS Mod,2013-02-10 03:08:00,
2013-02-09 22:14:00,69.3,61.8,30.11,East,84,0.0,0.0,77,0.00,,,0.00,Wunderground PWS Mod,2013-02-10 03:14:00,
2013-02-09 22:20:00,69.3,61.8,30.11,WNW,296,0.0,3.0,77,0.00,,,0.00,Wunderground PWS Mod,2013-02-10 03:20:00,
2013-02-09 22:26:00,69.3,61.8,30.11,North,5,0.0,1.0,77,0.00,,,0.00,Wunderground PWS Mod,2013-02-10 03:26:00,
2013-02-09 22:28:00,68.8,61.3,30.11,N/A,-737280,0.0,0.0,77,0.00,,,0.00,Wunderground PWS Mod,2013-02-10 03:28:00,
2013-02-09 22:32:00,69.3,61.8,30.11,NNW,329,0.0,0.0,77,0.00,,,0.00,Wunderground PWS Mod,2013-02-10 03:32:00,
2013-02-09 22:38:00,69.1,61.6,30.11,SSW,206,0.0,0.0,77,0.00,,,0.00,Wunderground PWS Mod,2013-02-10 03:38:00,
2013-02-09 22:44:00,68.9,61.4,30.11,SSW,206,0.0,1.0,77,0.00,,,0.00,Wunderground PWS Mod,2013-02-10 03:44:00,
2013-02-09 22:50:00,68.6,61.1,30.11,SSW,206,0.0,0.0,77,0.00,,,0.00,Wunderground PWS Mod,2013-02-10 03:50:00,
2013-02-09 22:52:00,67.9,61.1,30.11,N/A,-737280,0.0,0.0,79,0.00,,,0.00,Wunderground PWS Mod,2013-02-10 03:52:00,
2013-02-09 22:56:00,68.4,60.9,30.11,SSW,206,0.0,0.0,77,0.00,,,0.00,Wunderground PWS Mod,2013-02-10 03:56:00,
2013-02-09 23:02:00,68.1,61.0,30.11,SSW,206,0.0,0.0,78,0.00,,,0.00,Wunderground PWS Mod,2013-02-10 04:02:00,
2013-02-09 23:08:00,67.9,61.1,30.11,SSW,206,0.0,0.0,79,0.00,,,0.00,Wunderground PWS Mod,2013-02-10 04:08:00,
2013-02-09 23:14:00,67.9,61.1,30.11,SSW,206,0.0,0.0,79,0.00,,,0.00,Wunderground PWS Mod,2013-02-10 04:14:00,
2013-02-09 23:20:00,67.9,61.1,30.11,SSW,206,0.0,0.0,79,0.00,,,0.00,Wunderground PWS Mod,2013-02-10 04:20:00,
2013-02-09 23:26:00,68.1,61.3,30.11,SSW,206,0.0,0.0,79,0.00,,,0.00,Wunderground PWS Mod,2013-02-10 04:26:00,
2013-02-09 23:32:00,68.1,61.3,30.11,SSW,206,0.0,1.0,79,0.00,,,0.00,Wunderground PWS Mod,2013-02-10 04:32:00,
2013-02-09 23:38:00,68.1,61.3,30.11,SW,225,0.0,1.0,79,0.00,,,0.00,Wunderground PWS Mod,2013-02-10 04:38:00,
2013-02-09 23:40:00,68.3,61.5,30.11,N/A,-737280,0.0,0.0,79,0.00,,,0.00,Wunderground PWS Mod,2013-02-10 04:40:00,
2013-02-09 23:44:00,68.1,61.3,30.11,SW,217,0.0,0.0,79,0.00,,,0.00,Wunderground PWS Mod,2013-02-10 04:44:00,
2013-02-09 23:50:00,68.1,61.3,30.11,ESE,123,0.0,0.0,79,0.00,,,0.00,Wunderground PWS Mod,2013-02-10 04:50:00,
2013-02-09 23:56:00,68.3,61.5,30.11,NE,49,0.0,1.0,79,0.00,,,0.00,Wunderground PWS Mod,2013-02-10 04:56:00,